Temp
14 16 17 16 16 17 17 18 18 18 18 18 18 19 19 19 20 21 25 25 23 23 22 23 23 24 25 25 25 26 26 28 28 27 28 28 27 28 28 28 28 29 28 28 26
11 12 14 16 16 17 17 18 18 18 18 18 19 19 20 19 19 25 25 24 23 23 23 24 25 25 26 26 25 25 26 28 27 28 27 27 27 28 27 28 28 28 28 27 26
11 13 14 15 15 16 17 18 18 18 18 18 18 19 19 19 23 27 25 24 23 23 24 25 26 26 26 26 26 26 26 27 27 27 27 27 27 27 27 27 28 27 27 27 26
14 14 14 15 15 16 16 17 18 18 18 18 18 19 19 19 25 26 24 24 23 24 25 25 26 25 25 25 27 25 27 27 27 26 26 26 27 27 27 27 27 26 26 26 26
13 13 13 14 14 15 15 16 17 18 18 18 18 18 19 24 26 24 23 23 23 24 25 26 26 26 25 27 27 26 27 27 27 26 26 26 26 26 27 28 26 25 24 25 25
13 13 13 13 13 14 15 16 17 18 18 19 18 18 19 24 25 24 23 23 24 24 26 26 26 27 26 26 26 27 26 27 27 26 27 26 26 27 27 28 26 25 25 25 25
14 14 13 13 13 15 16 17 17 18 19 18 18 17 23 26 25 25 24 24 24 25 26 26 26 26 27 26 27 26 25 27 27 27 26 26 25 26 27 27 26 25 25 25 24
12 13 14 13 13 14 16 16 18 18 18 18 18 18 24 24 24 24 24 25 24 25 25 25 25 25 25 26 26 25 27 26 28 26 26 25 25 28 28 26 25 26 26 26 25
11 11 12 14 14 14 15 18 18 18 17 18 18 21 25 22 23 24 24 25 25 25 24 24 24 25 25 24 26 27 26 27 27 27 26 25 25 28 26 26 25 26 26 26 25
11 11 12 13 14 15 16 18 17 17 17 17 20 22 24 25 25 25 25 25 25 25 24 24 25 24 25 26 25 27 27 27 26 27 25 25 26 27 28 25 25 26 26 25 25
11 12 12 13 14 15 16 19 21 21 20 24 25 25 26 25 24 25 25 25 26 25 24 25 24 24 26 27 27 27 26 26 27 28 25 25 26 27 27 26 25 25 25 24 23
11 11 12 13 14 15 16 20 17 16 18 23 24 24 25 25 25 26 25 25 24 24 25 25 23 26 27 27 25 25 25 26 27 27 25 25 26 27 27 26 25 24 23 22 22
10 10 11 13 14 15 16 16 16 16 19 23 24 24 25 24 25 26 26 25 25 24 26 25 27 26 26 25 24 25 25 26 26 26 26 25 25 26 26 24 23 23 22 22 19
9 10 10 12 14 14 17 15 16 16 19 24 23 24 25 25 23 27 25 26 26 25 26 26 26 25 24 24 25 24 26 25 24 24 24 25 24 27 25 23 22 23 22 21 18
9 9 10 11 11 14 13 14 15 18 20 26 23 23 25 24 26 25 26 26 25 25 26 25 25 24 24 24 25 24 24 24 24 23 24 25 24 27 26 24 24 23 21 20 18
9 9 10 11 12 13 12 13 16 19 20 24 23 22 22 23 25 23 25 26 26 25 25 26 25 25 25 25 25 24 23 23 23 23 23 26 24 28 26 25 24 22 21 19 17
8 8 9 10 13 12 12 15 18 19 24 25 23 23 23 23 24 23 23 23 23 22 23 24 24 24 24 23 23 23 23 22 23 22 24 24 23 26 25 23 23 22 21 19 18
8 8 9 10 11 11 13 15 17 22 23 24 23 23 22 24 23 23 23 23 24 24 25 23 23 25 24 24 24 23 24 22 18 23 24 21 21 25 26 23 21 21 21 18 16
8 9 10 10 11 11 14 14 19 21 22 22 22 22 22 23 23 23 23 24 25 24 23 25 25 25 24 25 26 24 22 25 23 23 22 23 24 23 23 22 20 20 19 18 17
9 10 11 11 11 12 13 14 18 20 20 19 19 22 21 22 21 22 23 24 24 25 26 25 24 23 22 24 24 24 25 22 22 20 23 27 26 27 21 22 21 20 20 19 17
9 10 13 11 11 12 12 13 16 18 18 17 17 19 22 22 23 22 23 24 25 25 25 24 24 22 21 21 23 22 23 23 25 24 25 26 28 28 25 24 23 21 21 20 18
8 8 13 11 11 13 11 14 15 16 18 17 15 17 17 20 21 22 22 24 24 24 22 23 24 23 21 24 25 25 24 25 24 24 24 25 26 26 27 25 24 22 21 20 19
7 8 11 11 10 11 13 14 15 15 15 15 15 16 17 15 17 20 21 23 21 21 21 22 23 23 23 22 22 22 24 25 25 26 24 24 26 26 25 24 24 22 20 20 19
5 7 10 9 13 13 13 14 14 16 15 14 13 15 16 14 16 15 19 19 17 19 19 21 22 23 24 24 24 21 23 24 25 24 24 26 26 23 23 23 23 22 21 20 18
6 5 9 8 10 12 13 13 13 13 15 15 14 14 14 14 15 15 16 18 18 17 17 20 19 23 25 26 26 24 23 23 23 25 25 27 27 27 24 23 23 22 21 20 19
5 4 8 10 11 12 12 12 12 13 13 13 13 13 13 10 11 14 14 13 13 15 17 18 19 22 23 24 23 23 24 24 24 24 25 26 26 27 26 25 23 22 21 20 19
5 4 5 8 10 11 11 12 12 13 13 14 13 13 13 13 13 13 11 11 12 12 13 15 18 20 21 24 22 21 23 24 24 24 25 25 26 27 26 24 24 22 21 20 20
Height
816 814 812 810 808 807 805 802 799 797 795 793 791 788 787 787 785 783 778 776 778 779 780 782 783 781 781 780 782 778 783 776 769 773 767 763 770 762 763 766 762 762 763 764 770
819 816 813 811 809 807 804 801 799 796 793 791 790 788 787 786 784 777 775 775 776 777 780 781 780 781 778 778 780 781 779 768 766 765 769 766 768 764 768 764 763 764 763 768 770
820 817 815 812 810 807 804 800 797 795 793 790 787 786 786 785 782 767 768 773 775 777 778 778 778 777 779 777 776 773 780 766 768 767 766 768 769 764 768 770 761 765 765 767 769
819 817 815 812 810 807 804 800 796 793 790 788 786 786 785 785 783 768 770 772 774 776 777 776 777 780 781 783 771 782 768 769 768 768 769 772 764 765 764 763 762 766 767 768 767
819 816 814 812 809 806 803 800 796 792 788 786 785 785 785 780 770 768 771 773 775 776 774 774 775 777 781 772 771 776 766 766 765 768 769 766 768 765 760 756 763 765 768 767 767
821 818 814 812 808 805 802 798 794 790 786 783 783 783 784 780 768 769 771 773 774 775 773 773 772 769 774 771 773 764 767 765 762 764 763 768 764 760 757 753 761 764 764 764 765
820 818 815 811 807 803 799 796 792 787 784 781 782 782 778 769 766 768 770 772 774 774 773 772 772 773 768 773 766 769 774 762 757 758 763 762 768 760 753 751 758 759 760 762 764
820 817 814 811 806 802 797 793 788 785 783 781 779 783 771 763 766 767 770 771 773 774 774 774 773 771 771 767 769 773 765 773 747 758 759 767 770 742 742 752 756 753 753 755 760
820 816 812 809 804 799 794 789 785 783 782 781 781 778 768 762 763 764 767 768 771 773 774 774 774 771 771 777 772 764 771 760 758 755 759 765 761 742 747 751 752 750 749 750 754
819 815 812 807 803 797 792 786 782 782 782 783 780 779 761 757 757 760 764 766 769 771 774 773 771 774 770 768 778 761 759 756 764 754 761 762 757 745 740 748 750 748 747 750 751
820 815 811 806 801 797 790 786 781 779 779 766 759 756 752 754 757 758 760 763 766 769 775 768 776 773 760 756 756 757 764 765 753 748 764 761 752 743 737 740 746 749 749 750 753
819 815 810 806 801 796 793 788 795 797 781 763 758 756 753 755 754 752 759 763 764 769 763 768 775 755 748 752 760 764 767 762 750 749 762 755 748 737 734 737 743 748 751 754 755
819 815 810 803 799 797 796 796 795 794 782 751 742 743 745 753 749 745 751 753 757 763 757 763 749 750 753 760 767 762 765 759 758 752 752 754 746 731 735 741 749 750 751 753 761
819 815 811 804 800 798 794 797 795 794 779 741 739 734 736 743 747 736 742 747 749 756 753 753 744 752 759 760 757 766 747 755 762 768 767 752 761 729 733 745 750 747 749 754 764
818 816 810 809 808 802 800 796 794 792 783 724 734 732 728 738 727 732 735 741 747 750 747 748 750 751 759 755 749 759 756 760 763 765 761 753 764 723 725 740 741 743 750 755 761
817 814 813 809 808 804 800 795 794 791 768 732 730 737 738 737 730 738 735 737 738 745 743 741 739 743 745 746 745 750 761 762 762 764 770 738 751 720 728 729 733 744 748 757 761
817 812 812 810 804 803 800 796 790 772 726 723 729 731 732 733 733 738 741 743 746 759 753 746 743 744 742 756 756 759 762 773 771 776 757 743 751 728 724 730 733 741 746 755 759
815 812 807 807 804 803 801 797 781 736 732 722 730 730 735 725 731 734 735 740 735 733 735 749 750 736 736 737 749 755 753 770 800 762 754 758 757 727 716 730 737 741 746 754 761
810 809 804 802 800 802 796 788 749 741 735 735 730 732 734 727 728 728 730 726 721 726 740 732 731 719 728 729 732 744 757 741 757 754 767 742 728 727 727 734 739 743 748 753 758
809 804 798 795 797 797 790 769 749 744 738 745 745 728 730 728 735 729 727 709 713 711 715 719 731 729 737 733 733 738 732 758 759 779 758 715 717 711 731 728 735 739 744 748 757
805 799 789 790 792 791 778 767 758 751 750 754 749 737 723 720 715 723 714 703 700 705 710 720 725 739 743 740 729 744 742 739 733 737 736 722 704 691 705 715 723 731 737 743 753
800 794 782 785 784 772 775 764 761 754 748 749 756 751 744 730 719 712 713 707 699 702 717 712 715 726 736 715 713 717 726 725 733 738 732 724 715 696 697 707 714 724 733 740 747
786 783 780 779 773 769 761 757 752 754 755 755 751 751 745 748 741 720 711 703 708 711 715 711 716 725 721 729 725 724 715 713 714 714 729 728 708 698 701 709 714 722 732 739 746
791 773 771 770 757 753 751 748 747 747 749 755 757 749 746 751 745 738 720 716 724 717 711 708 709 709 700 703 699 720 711 709 711 719 720 709 705 713 711 712 715 721 729 736 745
781 767 756 756 753 747 746 746 746 747 745 749 751 752 749 744 737 738 734 727 727 726 720 714 720 703 690 682 686 692 699 701 707 698 706 693 692 689 703 707 710 717 725 732 740
772 773 758 747 743 741 739 743 743 743 746 748 748 750 753 764 758 742 739 745 744 733 723 713 714 700 694 688 696 696 688 690 693 695 697 690 691 681 687 698 706 713 721 728 735
759 763 763 741 735 735 733 736 738 741 742 742 743 744 743 745 749 750 752 748 741 740 735 725 714 709 700 683 698 706 680 684 683 685 687 695 680 679 687 694 699 706 714 721 729
Wind_Speed
12 12 12 13 14 15 16 17 17 15 14 15 15 12 11 12 11 8 11 3 6 6 6 4 6 4 4 3 5 3 6 7 7 6 3 5 6 6 2 8 5 3 7 8 6
15 15 15 15 15 16 16 17 19 19 16 16 15 12 9 10 14 16 10 7 9 8 7 8 5 6 4 3 4 6 7 6 6 4 4 2 6 6 4 8 8 6 5 2 6
17 17 17 17 17 17 16 17 18 19 21 18 14 12 7 8 13 12 15 12 12 10 5 8 5 6 6 4 7 5 8 4 4 6 4 6 7 8 8 9 8 4 3 1 3
16 18 18 19 19 19 19 18 19 19 22 19 14 9 7 5 4 4 12 14 12 9 7 6 6 7 5 8 6 8 9 6 2 1 4 9 9 8 11 11 2 3 2 3 5
18 18 19 21 21 21 21 21 21 21 22 16 11 7 4 8 10 6 14 14 10 8 9 7 9 8 11 7 7 12 10 6 7 6 8 10 12 13 13 10 6 5 6 6 6
19 23 21 22 23 23 23 23 23 24 21 12 8 5 8 13 3 10 15 12 10 11 9 8 8 7 9 9 9 5 8 10 8 10 11 11 13 13 12 13 10 9 10 9 7
14 17 21 24 24 22 23 24 26 24 15 8 5 6 10 12 1 12 16 14 11 10 8 8 6 8 2 9 10 10 12 12 13 13 11 6 15 17 16 9 13 13 11 9 8
17 17 18 22 26 25 25 27 25 19 8 6 3 7 7 1 9 13 16 12 10 7 6 4 5 7 7 3 8 10 12 11 4 5 7 7 15 10 7 9 14 14 12 9 10
17 19 20 21 24 27 26 26 21 9 4 2 3 9 9 1 12 16 19 15 12 8 5 5 5 7 5 10 10 11 12 8 6 8 8 10 11 6 4 9 13 14 12 10 10
18 20 21 23 24 25 28 20 10 4 2 5 8 6 8 8 12 19 19 15 13 9 7 9 6 9 10 11 11 8 10 9 8 5 8 14 17 16 14 10 13 13 10 11 11
22 22 23 22 23 25 23 9 5 6 10 12 4 13 1 4 7 16 21 17 14 13 14 13 10 14 15 14 16 13 13 15 13 6 8 16 16 14 10 12 11 11 9 9 12
22 24 25 25 22 17 12 6 6 7 11 17 21 21 18 7 9 15 23 17 16 18 16 10 15 17 13 8 9 12 16 16 13 5 8 16 18 15 13 10 9 4 6 9 11
21 24 26 26 15 5 7 7 11 6 8 15 23 23 21 22 16 19 24 23 20 19 19 18 8 3 12 12 13 15 15 15 15 11 13 17 22 15 7 6 5 6 3 5 8
21 24 26 29 5 13 1 12 13 6 7 12 8 8 19 14 15 24 30 22 16 20 19 15 20 12 10 14 11 14 13 11 12 8 8 2 7 6 12 10 9 4 1 4 5
19 22 22 16 14 9 11 16 13 5 8 10 9 2 4 18 8 20 27 23 22 18 14 9 11 13 16 18 15 14 0 5 8 10 14 16 7 9 10 10 11 4 2 4 4
16 18 22 12 12 9 17 17 7 6 13 5 6 7 8 19 11 3 18 23 16 20 17 20 0 10 13 5 9 5 5 6 8 8 9 18 12 6 10 10 8 5 6 5 3
17 17 17 14 7 14 15 8 6 10 2 7 6 7 14 15 20 12 20 24 15 17 21 19 20 9 8 8 5 10 7 3 5 5 4 4 5 13 8 6 6 8 8 6 4
18 21 15 16 14 12 8 5 14 11 23 1 1 5 10 12 19 17 18 23 27 20 10 18 11 24 18 20 9 17 15 5 5 4 2 2 7 2 6 9 9 7 7 7 4
18 17 14 11 9 8 6 12 11 14 16 20 17 20 16 16 9 19 23 24 25 27 16 11 12 6 6 16 16 11 13 13 13 11 6 7 10 5 9 11 10 10 9 8 6
16 17 20 13 10 11 9 23 18 16 15 9 15 13 16 19 14 12 15 14 25 26 22 11 8 10 6 7 10 10 10 7 6 4 6 8 10 6 15 15 13 12 12 11 7
15 7 11 14 13 7 12 16 20 25 23 8 14 18 19 20 20 19 11 15 19 19 21 19 12 7 9 14 16 10 12 8 5 9 4 5 3 7 14 16 15 14 13 12 11
11 5 13 16 11 10 14 19 12 25 19 17 7 19 21 22 19 21 25 19 13 12 22 26 12 12 17 1 17 20 18 18 7 9 8 9 3 4 11 12 13 13 13 12 11
5 8 13 19 10 11 17 22 23 23 21 20 20 17 15 19 21 17 19 13 3 10 12 13 14 13 13 7 7 12 20 20 19 11 12 8 1 4 10 11 12 14 14 13 13
3 4 8 8 13 20 21 22 22 19 18 7 14 20 20 19 18 11 16 5 6 7 7 7 15 24 17 14 14 12 21 23 20 14 16 16 5 11 12 13 13 14 15 15 14
7 5 7 5 15 22 20 18 17 18 16 15 14 16 21 24 25 19 25 23 14 7 5 7 13 23 24 25 9 13 21 26 27 26 15 16 16 13 17 17 16 16 16 16 15
9 3 8 13 15 20 18 21 23 19 15 12 15 17 17 14 16 20 15 15 7 8 4 6 14 19 22 23 12 14 16 22 28 25 24 17 12 6 16 16 16 17 18 17 17
18 10 5 10 17 16 16 22 18 16 16 16 17 18 19 18 18 19 15 13 8 3 4 5 12 17 18 20 11 15 23 20 21 24 24 21 21 9 11 19 20 20 19 19 18
Wind_Direction
4 1 358 0 360 357 352 350 350 346 337 328 322 312 308 306 295 255 248 191 182 194 167 184 217 192 215 201 252 270 256 259 250 246 250 145 237 163 294 271 197 262 287 22 345
357 354 355 356 358 356 352 347 345 342 336 327 319 306 305 310 287 257 226 212 172 166 167 196 195 198 213 224 216 244 258 302 7 294 254 194 263 273 249 237 243 226 231 341 318
359 357 354 353 352 352 348 343 342 339 336 326 317 305 301 311 275 250 194 184 176 174 212 224 239 228 257 253 226 203 258 22 256 263 262 270 252 240 259 259 264 281 324 309 303
3 359 356 353 351 347 344 340 337 334 333 325 314 304 286 272 286 75 179 173 175 180 203 201 222 228 253 237 223 262 235 256 291 205 250 253 265 253 243 261 22 204 263 255 268
1 358 355 351 348 345 341 336 333 329 327 321 310 297 285 231 254 149 168 174 174 187 208 214 230 233 251 259 247 245 265 243 241 244 256 268 261 266 263 245 216 207 223 240 256
347 347 346 343 342 342 337 334 330 324 321 309 299 259 241 257 42 172 171 177 195 207 210 221 238 264 286 264 247 341 280 263 246 252 259 257 260 245 250 237 220 218 232 239 255
336 335 336 336 330 332 333 331 326 320 313 299 278 208 257 243 261 193 186 192 203 215 229 223 242 223 296 255 242 269 271 265 245 244 242 268 262 247 255 203 229 226 241 240 258
351 340 333 329 329 334 329 327 321 314 304 299 223 219 257 209 222 200 194 197 202 210 249 209 209 246 247 324 249 254 255 268 151 199 219 221 278 294 182 220 240 243 244 236 250
352 346 342 333 331 329 326 326 317 298 281 239 214 226 258 149 202 201 196 197 193 199 183 188 216 241 188 239 248 221 270 233 256 189 254 219 283 314 201 238 252 256 255 269 282
344 338 336 336 335 332 328 325 300 271 261 249 260 240 222 227 196 196 197 203 189 193 193 212 225 233 218 229 244 293 234 259 260 198 230 261 268 270 264 229 260 262 272 277 297
351 347 337 326 331 332 333 323 229 199 223 244 289 243 290 159 168 204 191 189 206 205 225 201 229 230 242 227 257 297 284 279 282 280 271 268 268 276 266 244 248 262 273 309 320
348 346 342 336 325 337 338 343 27 322 293 265 255 256 257 235 212 203 186 195 201 214 223 206 238 249 259 270 264 256 266 268 276 307 275 277 278 278 261 260 260 272 295 324 334
344 343 340 335 328 360 352 35 339 310 262 271 234 234 226 219 229 198 190 203 206 223 224 232 261 19 254 228 243 245 256 270 285 307 279 268 281 240 210 218 188 228 303 336 6
336 340 342 339 315 332 79 341 341 314 277 254 200 237 221 204 234 233 195 202 222 229 230 241 250 228 228 234 233 260 255 256 278 286 283 115 288 252 174 200 201 222 25 52 19
329 333 338 352 313 321 335 326 322 254 286 60 144 18 217 191 135 203 190 210 220 217 217 227 214 231 236 245 243 261 204 244 264 273 285 272 246 243 163 200 201 182 135 99 46
318 324 329 336 309 295 321 319 280 230 245 173 143 182 183 204 209 102 190 218 228 237 226 244 41 204 227 236 237 112 212 239 258 264 262 252 209 253 181 218 136 168 160 117 88
314 310 309 302 277 322 325 304 222 232 158 206 206 192 212 200 216 186 196 197 201 211 228 223 228 212 188 184 191 198 215 249 235 200 261 56 229 253 114 134 153 160 159 133 102
307 307 296 278 272 285 293 221 232 254 231 288 43 225 238 216 217 204 204 210 216 217 240 218 222 208 201 209 198 206 209 197 234 245 263 157 235 240 129 142 140 146 151 140 134
304 297 283 273 258 223 218 219 234 248 275 288 284 263 256 240 233 213 226 221 215 219 213 224 227 203 183 207 216 184 223 245 275 263 275 219 235 172 173 169 166 166 174 162 158
293 289 273 256 211 200 222 234 243 261 297 319 266 245 233 234 213 219 219 226 226 213 224 249 239 183 179 193 225 234 180 178 217 234 246 216 241 230 188 192 180 181 186 165 163
273 276 264 182 177 209 230 237 252 260 275 287 267 260 259 246 229 224 239 219 215 214 199 227 245 170 155 211 188 182 201 220 224 229 283 289 198 5 177 190 180 185 182 173 165
247 241 201 194 209 214 235 241 245 257 273 277 260 275 274 282 277 249 242 245 208 211 196 209 228 211 210 154 229 205 213 214 213 218 233 287 289 188 148 169 169 172 171 172 157
237 221 213 197 224 233 241 250 241 255 259 263 263 241 269 298 288 269 261 258 194 195 194 205 230 239 186 196 212 226 216 227 225 256 255 239 166 163 145 160 168 163 168 168 154
270 227 209 221 231 235 227 241 252 254 259 253 276 280 270 257 268 272 274 54 353 264 271 261 219 223 221 221 176 203 210 215 223 224 232 235 210 190 183 180 173 169 171 169 166
238 230 194 205 217 226 238 246 250 250 246 236 250 261 261 266 260 263 265 273 321 310 274 185 232 241 244 257 235 208 204 204 211 218 226 240 233 204 193 194 185 174 174 174 174
239 232 236 236 216 216 216 231 237 239 251 245 246 248 257 272 284 276 308 280 243 299 276 196 249 253 249 243 229 237 225 212 214 221 231 247 243 272 184 189 184 182 179 183 182
219 225 285 218 209 214 201 214 228 242 257 255 265 268 267 257 267 274 294 285 239 269 315 291 231 245 249 230 220 251 222 211 216 220 225 231 239 249 201 189 190 186 186 188 185